Location: Bletchingley
(51.2333°N, 0.1000°W)
Time: 12:47:40
(UTC+00:00)

Cosmos 2266 Rocket - Pass Details

Date: 18 September 2020
Orbit: 934 x 1008 km, 82.9° (Epoch: 23 October)

Event Time Altitude Azimuth Distance (km) Brightness Sun altitude
Rises 20:57:08 0° 352° (N) 3,621 7.7 -25.4°
Reaches altitude 10° 20:59:43 10° 358° (N) 2,666 6.8 -25.7°
Enters shadow 21:05:34 52° 71° (ENE) 1,159 4.1 -26.4°
